Campo, CA

7:03 PM PDT on October 18, 2019 (GMT -0700)
Campo

Weather History for KCZZ - August, 2019

Change the Weather History Date:

Monday, August 26, 2019

  Actual Average Record
Temperature  
Mean Temperature 79 °F 73 °F  
Max Temperature 95 °F 94 °F 104 °F (1999)
Min Temperature 62 °F 52 °F 31 °F (1973)
Degree Days  
Heating Degree Days 0 0  
Month to date heating degree days 0 0  
Since 1 June heating degree days 42 63  
Since 1 July heating degree days 6 7  
Cooling Degree Days 14 9  
Month to date cooling degree days 255 234  
Year to date cooling degree days 583 606  
Since 1 June cooling degree days 581 576  
Growing Degree Days 28 (Base 50)    
Moisture  
Dew Point 48 °F    
Average Humidity 42    
Maximum Humidity 65    
Minimum Humidity 19    
Precipitation  
Precipitation 0.00 in 0.02 in 0.45 in (1982)
Month to date precipitation 0.00 0.60  
Year to date precipitation 12.82 11.07  
Sea Level Pressure  
Sea Level Pressure 29.82 in    
Wind  
Wind Speed 8 mph (SW)    
Max Wind Speed 22 mph    
Max Gust Speed 26 mph    
T = Trace of Precipitation, MM = Missing Value Source: NWS Daily Summary

Daily Weather History Graph

Daily Weather History Graph

Search for Another Location

Airport or City:

Astronomy

Aug. 26, 2019 Rise Set
Actual Time 6:16 AM PDT 7:18 PM PDT
Civil Twilight 5:51 AM PDT 7:43 PM PDT
Nautical Twilight 5:21 AM PDT 8:13 PM PDT
Astronomical Twilight 4:50 AM PDT 8:44 PM PDT
Moon 1:57 AM PDT (8/26) 4:34 PM PDT (8/26)
Length of Visible Light 13h 52m
Length of Day
13h 01m
Waning Crescent, 18% of the Moon is Illuminated
Aug 26
Waning Crescent
Aug 30
New
Sep 5
First Quarter
Sep 13
Full
Sep 21
Last Quarter

Hourly Weather History & Observations

Time (PDT) Temp. Heat Index Dew Point Humidity Pressure Visibility Wind Dir Wind Speed Gust Speed Precip Events Conditions
12:52 AM 68.0 °F - 54.0 °F 61% 29.86 in - ENE 3.5 mph - N/A   Unknown
1:52 AM 66.9 °F - 51.1 °F 57% 29.84 in - ENE 3.5 mph - N/A   Unknown
2:52 AM 66.0 °F - 50.0 °F 56% 29.84 in - NNE 3.5 mph - N/A   Unknown
3:52 AM 64.9 °F - 51.1 °F 61% 29.84 in - ENE 5.8 mph - N/A   Unknown
4:52 AM 63.0 °F - 50.0 °F 63% 29.85 in - Calm Calm - N/A   Unknown
5:52 AM 63.0 °F - 50.0 °F 63% 29.85 in - NE 5.8 mph - N/A   Unknown
6:52 AM 64.9 °F - 51.1 °F 61% 29.86 in - NE 4.6 mph - N/A   Unknown
7:52 AM 73.0 °F - 53.1 °F 49% 29.87 in - Calm Calm - N/A   Unknown
8:52 AM 79.0 °F - 55.9 °F 45% 29.86 in - Calm Calm - N/A   Unknown
9:52 AM 84.0 °F 82.9 °F 55.0 °F 37% 29.86 in - SSW 5.8 mph - N/A   Unknown
10:52 AM 87.1 °F - 51.1 °F 29% 29.85 in - SSW 11.5 mph - N/A   Unknown
11:52 AM 91.0 °F - 48.0 °F 23% 29.82 in - SSW 12.7 mph - N/A   Unknown
12:52 PM 93.0 °F - 46.9 °F 20% 29.80 in - SSW 16.1 mph - N/A   Unknown
1:52 PM 93.9 °F - 46.9 °F 20% 29.78 in - SW 16.1 mph 24.2 mph N/A   Unknown
2:52 PM 93.9 °F - 46.0 °F 19% 29.77 in - SW 21.9 mph - N/A   Unknown
3:52 PM 93.0 °F - 45.0 °F 19% 29.76 in - WSW 15.0 mph 21.9 mph N/A   Unknown
4:52 PM 91.0 °F - 44.1 °F 20% 29.77 in - West 15.0 mph - N/A   Unknown
5:52 PM 88.0 °F - 42.1 °F 20% 29.78 in - WSW 10.4 mph - N/A   Unknown
6:52 PM 82.0 °F - 42.1 °F 24% 29.79 in - SW 11.5 mph - N/A   Unknown
7:52 PM 75.9 °F - 45.0 °F 33% 29.80 in - SW 8.1 mph - N/A   Unknown
8:52 PM 75.0 °F - 46.0 °F 36% 29.81 in - SSW 3.5 mph - N/A   Unknown
9:52 PM 69.1 °F - 45.0 °F 42% 29.82 in - NNE 3.5 mph - N/A   Unknown
10:52 PM 69.1 °F - 45.0 °F 42% 29.82 in - NNE 3.5 mph - N/A   Unknown
11:52 PM 66.9 °F - 45.0 °F 45% 29.81 in - Calm Calm - N/A   Unknown